Location: Casteau
(50.5142°N, 4.0161°E)
Time: 08:49:34
(UTC+00:00)

Cosmos 2026 Rocket - Pass Details

Date: 18 September 2020
Orbit: 940 x 1000 km, 82.9° (Epoch: 27 October)

Event Time Altitude Azimuth Distance (km) Brightness Sun altitude
Rises 19:55:08 0° 351° (N) 3,714 7.6 -19.8°
Reaches altitude 10° 19:57:41 10° 354° (N) 2,768 6.8 -20.2°
Maximum altitude 20:04:02 69° 78° (ENE) 1,066 4.0 -21.1°
Enters shadow 20:06:54 35° 152° (SSE) 1,570 4.6 -21.4°
